Regional Weather Roundup
Issued by NWS

Home | Current Version | Previous Version | Graphics & Text | Print | Product List | Glossary On
Versions: 1 2 3 4 5 6 7 8 9 10 11 12 13 14 15 16 17 18 19 20 21 22 23 24 25 26 27
000
ASUS45 KBOU 221707
RWRCO

WEATHER ROUNDUP FOR COLORADO
NATIONAL WEATHER SERVICE DENVER/BOULDER CO
1100 AM MDT SAT APR 22 2017

NOTE: "FAIR" INDICATES FEW OR NO CLOUDS BELOW 12000 FEET WITH NO
SIGNIFICANT WEATHER AND/OR OBSTRUCTIONS TO VISIBILITY.

COZ001>005-013-030-031-221800-
...NORTHWEST COLORADO...

CITY           SKY/WX    TMP DP  RH WIND       PRES   REMARKS
CRAIG          FAIR      45  28  51 CALM      30.29F
HAYDEN         FAIR      43  27  52 S5        30.29S
MEEKER         FAIR      45  29  53 VRB5      30.27S
MOUNT WERNER   NOT AVBL
STEAMBOAT SPGS FAIR      40  29  65 NW5       30.29S
WALDEN           N/A     30  28  93 SE3       30.31F
$$

COZ006>008-011-221800-
...WEST CENTRAL VALLEYS...

CITY           SKY/WX    TMP DP  RH WIND       PRES   REMARKS
GRAND JUNCTION FAIR      55  23  28 CALM      30.23R
MONTROSE       FAIR      50  23  34 N5        30.25F
EAGLE          PTSUNNY   46  25  42 CALM      30.31F
RIFLE          FAIR      50  25  37 W3        30.26F
DELTA          FAIR      54  24  30 CALM      30.24S
NUCLA          FAIR      50  19  29 W5        30.26R
$$

COZ017>023-064>068-221800-
...SOUTHWEST COLORADO...

CITY           SKY/WX    TMP DP  RH WIND       PRES   REMARKS
DURANGO        FAIR      51  12  21 W8        30.20R
CORTEZ         FAIR      53  18  25 SW6       30.20R
PAGOSA SPRINGS FAIR      48   8  19 SW6       30.22S
TELLURIDE      FAIR      42   8  24 W7        30.25S
WOLF CREEK PAS FAIR      30  10  43 CALM      30.35R
$$

COZ009-010-012-014-032>034-037-058>063-221800-
...CENTRAL COLORADO...

CITY           SKY/WX    TMP DP  RH WIND       PRES   REMARKS
ASPEN          FAIR      43  22  43 VRB5      30.26R
BUENA VISTA    CLOUDY    40  15  35 CALM      30.28R
COPPER MTN     PTSUNNY   28  21  74 E3        30.32R
BERTHOUD PASS  FLURRIES  16   5  62 SE5       30.32R WCI   9
COTTONWOOD PAS CLOUDY    37  14  38 CALM      30.30R
GUNNISON       FAIR      43  15  32 VRB3      30.25F
KREMMLING      FAIR      46  30  53 NW3       30.31S
LEADVILLE      PTSUNNY   30  11  45 CALM      30.27R
SALIDA         FAIR      47  24  41 E5        30.35S
SUNLIGHT       CLOUDY    25  21  86 MISG      30.35R
WILKERSON PASS CLOUDY   N/A N/A N/A CALM      30.35R FOG
$$

COZ069>075-221800-
...SAN LUIS VALLEY/SANGRE DE CRISTO MOUNTAINS...

CITY           SKY/WX    TMP DP  RH WIND       PRES   REMARKS
ALAMOSA        FAIR      49  20  31 VRB5      30.24R
LA VETA PASS   SNOW      30  28  93 N12G18    30.40R VSB 1/4 WCI  21
SAGUACHE       FAIR      48  14  25 S3        30.24R
$$

COZ035-036-038>040-221800-
...NORTHERN COLORADO FRONT RANGE...

CITY           SKY/WX    TMP DP  RH WIND       PRES   REMARKS
DENVER INTL AP PTSUNNY   43  36  76 SE3       30.31R
DMNS CITY PARK   N/A     46  34  64 N5G15     30.31F
AURORA         NOT AVBL
FRONT RANGE AP PTSUNNY   45  36  70 E3        30.32R
ERIE MUNI ARPT CLOUDY    44  37  76 CALM      30.32S
BOULDER MUN AP CLOUDY    41  36  81 N3        30.32R
CENTENNIAL     CLOUDY    42  37  82 N8        30.31R
BROOMFIELD     CLOUDY    43  36  75 CALM      30.32R
FORT COLLINS   FAIR      43  36  76 CALM      30.33R
LONGMONT       CLOUDY    45  38  77 SW3       30.34R
$$

COZ041-046-047-076>085-087-088-221800-
...PIKES PEAK/PALMER DIVIDE AND SOUTHERN FOOTHILLS...

CITY           SKY/WX    TMP DP  RH WIND       PRES   REMARKS
COLO. SPRINGS  LGT RAIN  39  35  86 S5        30.33R
A. F. ACADEMY  CLOUDY    39  37  93 S3        30.31R
SCHRIEVER AFB  LGT RAIN  37  35  93 S5        30.33R
ELLICOTT       LGT RAIN N/A N/A N/A SW7       30.32R
FALCON         FLURRIES  36  34  94 S7        30.33R
FORT CARSON    CLOUDY    39  34  80 SE6       30.33R
LIMON          PTSUNNY   44  34  67 S7        30.32R
MONUMENT HILL  CLOUDY    36  34  93 N9        30.32R
TRINIDAD       LGT RAIN  38  34  85 E9        30.32R
$$

COZ042>045-048>051-090-091-221800-
...NORTHEAST COLORADO...

CITY           SKY/WX    TMP DP  RH WIND       PRES   REMARKS
GREELEY ARPT   FAIR      48  37  66 VRB3      30.33S
AKRON          CLOUDY    45  35  68 CALM      30.32R
BURLINGTON     NOT AVBL
WRAY           NOT AVBL
STERLING       PTSUNNY   48  37  66 SW5       30.31S
HOLYOKE        FAIR      54  36  50 CALM      30.33R
FORT MORGAN    CLOUDY    47  33  58 S5        30.33R
$$

COZ086-089-092>099-221800-
...SOUTHEAST COLORADO...

CITY           SKY/WX    TMP DP  RH WIND       PRES   REMARKS
PUEBLO         CLOUDY    43  37  79 S6        30.33R
LA JUNTA       CLOUDY    47  34  60 CALM      30.32R
LAMAR          FAIR      50  34  54 CALM      30.30S
SPRINGFIELD      N/A     47  31  53 NE8       30.30R
$$




USA.gov is the U.S. government's official web portal to all federal, state and local government web resources and services.